Wind_Speed
26 27 27 26 27 29 31 34 37 35 30 28 31 36 36 32 27 26 28 32 36 36 32 28 24 24 25 27 28 29 30 29 29 31 32 33 33 31 31 32 33 33 33 33
29 30 29 26 26 28 29 31 32 32 30 30 31 33 32 28 21 18 19 22 24 24 24 23 23 24 26 28 28 28 28 29 29 30 31 32 32 31 30 31 31 31 32 31
32 32 31 28 26 26 26 27 28 29 29 28 28 28 28 26 22 17 13 12 12 13 17 20 21 22 24 26 27 27 27 28 29 30 30 30 30 29 29 30 31 32 32 32
35 34 33 28 26 24 24 24 26 27 26 25 24 24 23 24 21 15 11 7 8 10 11 14 16 18 20 21 23 24 26 27 29 30 31 31 31 30 31 32 32 32 32 32
35 36 34 27 26 23 22 21 23 25 25 23 22 21 20 19 18 14 10 8 9 9 9 11 13 16 18 19 21 23 24 25 27 29 31 31 31 31 30 29 28 28 29 29
28 31 33 28 25 21 22 20 21 21 21 20 19 19 19 16 15 13 10 8 8 8 9 10 13 15 17 19 21 22 24 25 25 26 26 25 23 22 22 22 23 24 25 26
25 27 29 28 28 26 25 23 21 19 19 17 16 17 16 14 13 12 11 10 9 9 9 10 12 14 16 19 21 23 25 25 24 22 20 18 17 17 17 17 19 21 22 23
25 26 27 27 30 30 27 25 23 20 17 15 15 14 13 12 11 10 9 8 7 7 6 6 7 8 10 12 14 16 16 16 16 15 13 12 13 13 14 15 17 18 19 19
28 26 26 27 30 31 30 27 24 21 18 15 14 13 12 9 8 7 7 5 4 4 3 3 4 6 7 8 8 7 7 7 8 8 9 10 10 10 10 13 15 17 17 18
29 27 28 28 29 31 31 28 24 22 21 18 15 14 13 10 8 6 5 4 3 3 3 4 5 6 7 7 7 6 3 3 5 7 8 9 11 12 14 16 17 17 17 18
27 26 28 27 27 28 28 26 24 22 23 22 19 16 16 15 14 12 11 9 8 7 7 7 8 8 8 7 6 5 3 3 5 7 9 11 13 14 15 15 16 17 17 19
25 25 27 25 25 25 25 24 23 23 24 24 22 20 19 19 18 17 15 13 11 11 11 11 11 11 11 10 9 8 6 6 7 9 10 11 11 12 12 14 15 17 19 20
27 26 26 23 22 23 22 20 18 21 23 23 23 23 22 22 22 21 18 16 15 15 15 15 15 14 14 14 13 12 11 11 11 11 11 11 12 12 13 15 16 19 21 22
28 27 25 23 23 23 20 16 13 12 17 22 24 25 25 24 24 24 22 21 20 20 19 20 20 18 18 17 16 16 15 15 14 14 14 13 13 14 15 16 18 20 22 24
28 27 24 23 23 22 19 16 13 12 13 15 18 22 25 25 25 26 25 24 24 24 24 23 23 22 21 20 19 18 18 17 16 16 16 16 15 15 16 17 18 20 21 23
28 27 25 23 21 19 18 17 17 16 16 16 16 16 18 21 24 26 27 27 28 28 27 26 26 26 24 23 21 20 19 18 18 18 18 17 16 16 16 17 17 17 19 21
28 27 26 23 20 19 19 21 23 23 21 21 19 18 16 15 17 20 22 23 24 27 28 28 28 28 28 26 23 22 21 20 19 19 19 18 17 16 16 15 14 15 17 20
28 27 26 25 23 21 21 23 26 27 27 25 23 21 19 17 15 16 18 19 20 21 23 25 27 28 29 28 25 23 22 21 21 20 19 18 18 17 15 14 14 14 16 19
26 26 28 29 28 27 25 24 25 26 26 25 24 23 21 20 19 18 19 18 17 18 20 22 23 25 26 27 26 24 22 22 22 21 20 19 18 17 15 14 14 14 17 19
28 28 29 29 30 32 32 29 26 24 25 26 25 25 24 23 22 22 22 20 17 18 20 20 20 21 23 24 25 24 22 21 21 21 20 19 19 17 16 15 15 16 17 19
34 34 33 34 36 36 38 37 33 31 30 28 27 27 27 27 27 26 26 23 20 21 22 21 19 19 20 21 22 23 22 20 19 19 20 20 19 19 18 17 17 18 17 18
46 44 43 44 43 43 42 39 38 36 34 31 29 29 30 30 30 30 29 26 24 26 27 25 21 20 21 23 23 22 22 21 20 19 18 18 18 18 18 18 18 18 17 17
52 50 50 48 47 45 45 44 42 40 38 36 34 35 35 35 34 34 33 31 31 31 31 30 28 27 26 26 25 23 23 23 23 21 19 18 17 17 17 17 18 18 16 17
60 56 54 52 51 50 49 48 47 46 45 43 41 40 39 39 38 37 36 36 35 35 36 34 31 31 30 29 28 26 26 26 24 23 21 21 20 19 18 18 18 18 17 18
67 63 58 55 53 52 51 50 49 47 45 43 41 40 39 39 39 37 36 36 37 36 36 34 32 32 32 31 29 28 28 27 25 23 21 22 22 20 19 18 18 19 19 21
62 62 60 57 55 52 50 48 46 44 44 43 42 40 39 39 38 37 36 36 37 36 35 34 34 34 32 29 27 27 27 27 25 22 21 20 20 18 17 18 19 20 21 23
49 48 49 51 51 49 47 43 42 41 41 41 39 37 37 38 38 37 36 36 36 36 34 32 31 30 28 26 24 23 23 24 24 24 24 24 22 21 20 19 19 20 21 24
Wind_Direction
292 291 291 294 298 303 311 320 327 329 323 322 324 326 324 315 297 277 263 258 256 261 266 271 272 269 265 265 267 268 268 267 267 270 274 274 272 271 272 275 277 277 278 280
291 290 290 292 293 298 309 321 327 327 320 316 320 327 332 331 318 294 275 265 262 262 263 260 259 261 262 262 262 264 264 263 265 271 273 271 271 273 276 278 279 280 280 281
287 286 288 290 290 294 303 316 324 327 324 316 318 327 336 340 336 320 300 273 254 253 253 249 250 255 259 259 258 259 261 261 264 268 269 268 269 271 275 279 281 283 283 284
279 279 279 285 284 287 294 308 320 329 331 325 320 324 333 339 339 332 317 290 269 265 258 251 252 256 260 260 260 261 263 266 267 267 267 267 268 271 276 281 283 284 284 285
278 272 271 272 278 284 288 301 315 327 332 331 322 319 325 334 338 338 330 311 294 281 270 259 255 255 257 260 262 263 264 265 267 267 268 270 273 277 280 284 284 284 283 283
293 281 273 268 271 275 279 288 300 316 327 333 327 321 323 325 327 331 329 315 299 288 279 271 264 263 266 269 269 269 269 269 269 272 275 278 281 284 286 286 286 286 286 284
306 294 287 280 274 272 276 279 287 301 316 328 331 333 337 334 326 318 313 307 298 288 282 279 276 276 276 275 276 275 273 272 273 275 277 279 282 283 284 286 288 291 291 292
313 305 300 293 285 279 276 273 279 288 300 315 325 335 346 355 352 337 325 315 305 295 290 290 292 295 297 297 293 286 280 275 274 272 271 272 276 281 288 294 297 298 298 298
311 309 304 295 290 285 278 272 272 280 285 297 308 315 324 341 359 2 5 8 11 9 6 352 339 336 336 337 336 324 300 282 275 268 267 274 280 288 296 304 307 306 304 301
310 311 303 295 292 288 283 276 267 271 276 279 284 290 295 297 304 314 320 319 321 328 329 328 332 337 341 350 2 11 360 301 277 276 278 281 285 292 297 300 301 300 299 298
309 306 299 297 293 290 286 281 265 262 267 268 269 272 275 276 276 278 278 275 275 280 290 301 307 311 314 324 335 342 333 302 281 277 279 283 288 292 295 297 298 299 300 301
306 301 301 301 295 293 290 285 266 253 259 264 266 267 269 271 272 272 273 275 277 283 287 290 293 295 295 296 299 300 296 286 280 280 283 287 292 294 295 296 297 299 300 301
303 298 300 301 294 293 293 291 275 250 251 261 265 266 268 269 271 272 274 276 279 281 283 285 288 291 292 291 290 289 288 286 285 286 288 290 293 295 297 300 302 303 304 305
303 297 296 293 292 292 291 292 292 270 257 261 266 266 265 265 268 271 272 273 275 276 278 281 285 288 290 290 288 286 284 282 281 282 284 288 293 297 300 303 306 307 309 313
303 296 294 291 288 287 285 283 289 289 278 278 278 272 264 258 260 266 269 270 270 272 273 276 280 284 286 287 285 284 282 281 280 279 280 283 288 294 299 302 304 307 312 318
300 298 294 289 287 281 276 276 278 284 287 289 292 295 284 266 258 261 265 268 269 270 270 272 275 278 282 284 283 280 278 277 278 278 280 282 284 287 291 294 298 305 312 319
294 292 288 283 279 275 272 271 273 276 279 283 285 287 287 283 273 267 268 273 277 274 269 269 271 274 276 278 279 277 274 272 272 274 276 279 280 283 288 293 299 309 317 324
288 282 277 274 271 270 271 270 268 267 269 272 275 276 275 274 274 271 272 279 285 284 277 272 273 275 275 274 274 275 274 271 269 269 273 277 282 289 298 303 307 313 318 324
287 277 272 272 273 273 271 268 265 263 264 267 269 270 271 270 268 267 270 277 286 284 280 279 281 282 279 272 268 267 269 269 268 268 271 274 279 285 293 299 303 307 313 320
281 277 272 271 272 272 270 264 257 255 258 262 266 269 271 272 270 267 267 268 273 272 273 277 284 291 290 280 270 266 266 267 268 268 271 274 277 283 290 296 300 303 307 318
277 273 271 271 271 272 263 252 246 243 245 252 262 270 273 273 271 269 267 266 262 259 261 266 276 290 298 292 280 270 267 266 266 267 268 270 274 281 288 293 298 300 303 312
275 274 272 272 271 269 262 254 245 241 242 247 259 269 273 274 272 269 266 265 260 254 253 256 263 274 287 292 285 272 266 266 268 268 267 267 270 277 282 286 290 292 296 305
271 268 268 268 268 267 263 260 256 250 251 258 265 270 271 269 268 266 265 266 262 255 252 253 258 265 272 282 282 272 264 265 269 271 273 275 278 283 285 284 285 287 292 303
271 268 265 263 262 261 262 264 267 268 270 271 270 269 268 268 266 265 265 263 260 256 254 253 257 260 262 270 275 270 262 261 266 270 274 277 281 285 287 286 285 287 294 305
271 271 268 263 260 261 262 265 269 271 271 270 268 266 264 264 264 263 261 258 256 254 251 249 250 253 258 263 268 267 261 257 259 264 272 276 278 280 283 283 285 288 296 306
272 273 272 266 261 259 260 264 267 267 266 265 264 263 262 261 261 260 256 252 248 247 246 245 247 250 254 259 265 265 258 252 253 259 268 274 276 277 279 281 282 285 294 303
272 273 274 271 266 261 259 261 262 263 263 263 263 261 260 259 258 256 252 245 240 238 237 236 237 240 245 253 259 259 254 250 253 258 263 268 272 275 277 280 284 288 294 299
Height
5806 5803 5801 5799 5796 5792 5788 5782 5774 5768 5762 5756 5750 5742 5733 5725 5720 5719 5720 5724 5727 5731 5734 5737 5740 5742 5745 5747 5748 5748 5749 5749 5750 5750 5750 5750 5749 5749 5748 5748 5749 5749 5748 5748
5799 5795 5793 5792 5790 5785 5781 5775 5769 5763 5757 5751 5745 5738 5729 5721 5716 5714 5714 5716 5719 5723 5726 5729 5731 5734 5736 5738 5740 5740 5741 5741 5742 5742 5742 5742 5741 5741 5740 5740 5740 5740 5739 5740
5790 5787 5785 5785 5783 5779 5776 5771 5766 5759 5754 5746 5741 5735 5728 5721 5716 5712 5711 5711 5714 5717 5719 5722 5724 5726 5728 5729 5731 5732 5733 5733 5732 5732 5733 5733 5733 5733 5733 5732 5732 5731 5730 5730
5779 5779 5778 5780 5775 5773 5770 5766 5761 5755 5749 5742 5737 5731 5726 5721 5716 5713 5711 5711 5712 5713 5715 5716 5718 5720 5721 5722 5723 5724 5724 5724 5724 5724 5724 5724 5725 5725 5725 5724 5723 5723 5722 5722
5768 5767 5767 5770 5767 5766 5763 5760 5755 5750 5745 5740 5734 5728 5724 5721 5716 5713 5711 5710 5710 5711 5711 5712 5714 5716 5717 5717 5717 5717 5717 5716 5716 5716 5716 5715 5716 5716 5716 5716 5715 5715 5714 5714
5759 5756 5756 5761 5759 5757 5756 5754 5750 5746 5742 5737 5732 5727 5723 5718 5715 5712 5710 5710 5709 5709 5709 5710 5711 5712 5713 5712 5711 5710 5709 5708 5707 5707 5707 5707 5708 5708 5709 5709 5708 5708 5707 5705
5751 5747 5746 5749 5748 5748 5748 5747 5744 5741 5738 5734 5730 5725 5721 5716 5713 5711 5709 5708 5708 5707 5707 5708 5708 5708 5707 5706 5704 5702 5701 5700 5700 5701 5701 5701 5702 5703 5703 5702 5702 5701 5699 5697
5746 5741 5741 5740 5737 5737 5737 5737 5736 5735 5733 5730 5727 5723 5719 5715 5712 5710 5708 5707 5706 5705 5705 5704 5704 5703 5702 5700 5697 5695 5694 5694 5694 5695 5696 5697 5697 5698 5698 5697 5696 5695 5693 5691
5742 5740 5735 5731 5728 5727 5727 5727 5727 5727 5726 5726 5723 5721 5718 5715 5712 5710 5708 5706 5705 5704 5704 5703 5701 5700 5698 5696 5693 5691 5690 5690 5691 5692 5693 5693 5693 5694 5694 5693 5692 5691 5689 5687
5736 5733 5729 5724 5721 5718 5717 5717 5719 5719 5719 5720 5719 5717 5716 5714 5712 5709 5707 5706 5705 5704 5703 5701 5700 5698 5696 5694 5692 5689 5688 5688 5689 5689 5690 5690 5690 5690 5690 5689 5688 5686 5684 5683
5730 5726 5722 5719 5714 5711 5709 5708 5709 5710 5711 5712 5713 5713 5712 5710 5709 5707 5706 5704 5703 5702 5700 5699 5697 5696 5694 5692 5690 5688 5687 5687 5686 5687 5687 5687 5687 5686 5686 5684 5682 5681 5679 5677
5724 5719 5714 5712 5708 5704 5701 5700 5700 5701 5702 5703 5705 5706 5705 5705 5704 5703 5702 5700 5698 5697 5696 5695 5694 5693 5691 5689 5688 5686 5685 5685 5684 5684 5683 5683 5682 5682 5681 5679 5677 5675 5673 5671
5716 5712 5708 5704 5701 5697 5694 5693 5692 5693 5694 5695 5696 5697 5697 5697 5697 5696 5695 5694 5693 5692 5692 5691 5690 5689 5687 5686 5684 5683 5683 5682 5681 5680 5679 5679 5678 5677 5676 5674 5672 5669 5667 5665
5709 5704 5701 5697 5694 5691 5688 5686 5686 5686 5687 5687 5687 5687 5688 5688 5688 5688 5688 5688 5688 5687 5686 5685 5684 5684 5683 5682 5680 5679 5679 5678 5677 5676 5675 5674 5673 5672 5670 5668 5666 5663 5661 5658
5701 5697 5694 5690 5686 5684 5682 5681 5681 5681 5680 5680 5679 5679 5679 5679 5680 5680 5680 5681 5681 5681 5680 5679 5678 5678 5677 5676 5675 5675 5674 5673 5672 5671 5670 5669 5668 5667 5665 5663 5661 5658 5655 5652
5694 5690 5686 5683 5679 5676 5675 5674 5674 5674 5674 5673 5672 5672 5671 5671 5671 5671 5672 5672 5672 5672 5672 5672 5671 5670 5670 5670 5669 5669 5668 5667 5667 5666 5665 5664 5663 5662 5660 5659 5657 5654 5651 5648
5683 5681 5677 5674 5671 5669 5667 5667 5666 5666 5665 5665 5665 5665 5664 5664 5664 5663 5663 5663 5663 5663 5663 5663 5663 5662 5662 5662 5662 5662 5661 5661 5661 5660 5659 5658 5657 5656 5655 5653 5652 5649 5646 5643
5672 5669 5667 5664 5662 5660 5658 5658 5657 5657 5657 5657 5657 5656 5657 5657 5657 5657 5656 5656 5656 5654 5653 5653 5654 5654 5654 5654 5654 5654 5654 5654 5654 5654 5653 5652 5651 5649 5648 5646 5645 5643 5641 5639
5660 5658 5655 5652 5651 5650 5649 5647 5647 5647 5647 5647 5647 5647 5648 5649 5650 5650 5649 5649 5649 5648 5646 5645 5645 5645 5644 5644 5645 5646 5647 5647 5647 5647 5647 5646 5646 5644 5643 5641 5640 5639 5637 5634
5648 5645 5641 5639 5638 5637 5637 5636 5635 5636 5636 5636 5637 5637 5637 5639 5640 5641 5641 5642 5642 5642 5640 5639 5639 5638 5636 5635 5636 5637 5639 5640 5640 5640 5640 5640 5639 5639 5638 5636 5635 5634 5632 5629
5634 5632 5629 5626 5625 5624 5622 5621 5621 5622 5623 5624 5625 5625 5626 5627 5628 5629 5630 5632 5635 5634 5633 5633 5632 5632 5630 5629 5628 5629 5630 5632 5633 5634 5634 5634 5633 5633 5632 5631 5629 5628 5626 5624
5618 5616 5613 5611 5610 5609 5608 5606 5607 5608 5609 5611 5612 5613 5614 5615 5616 5616 5618 5621 5624 5624 5624 5624 5625 5625 5624 5623 5622 5623 5623 5624 5626 5627 5628 5628 5628 5628 5626 5625 5624 5622 5621 5619
5597 5596 5594 5593 5592 5591 5591 5591 5592 5594 5595 5597 5598 5599 5600 5602 5603 5604 5606 5610 5611 5612 5613 5614 5615 5616 5616 5615 5615 5616 5616 5617 5618 5619 5620 5620 5621 5621 5620 5619 5617 5616 5615 5613
5573 5573 5573 5573 5572 5572 5573 5574 5576 5578 5579 5581 5583 5584 5586 5587 5588 5590 5593 5595 5597 5599 5600 5602 5604 5606 5606 5607 5607 5608 5609 5610 5612 5612 5613 5613 5613 5613 5612 5611 5610 5609 5608 5606
5546 5547 5549 5551 5553 5554 5556 5557 5559 5561 5562 5564 5566 5568 5570 5571 5573 5575 5577 5580 5583 5585 5587 5590 5593 5595 5596 5598 5599 5600 5601 5602 5604 5605 5606 5606 5606 5605 5604 5603 5602 5602 5601 5599
5522 5523 5524 5527 5531 5535 5538 5541 5543 5545 5546 5548 5550 5551 5553 5554 5556 5558 5561 5565 5568 5571 5574 5578 5581 5584 5586 5588 5590 5591 5592 5594 5595 5597 5598 5599 5598 5598 5597 5597 5596 5595 5594 5591
5502 5503 5504 5506 5511 5515 5520 5524 5527 5529 5530 5532 5534 5535 5536 5538 5540 5543 5546 5549 5554 5557 5562 5566 5569 5573 5576 5578 5580 5582 5584 5586 5587 5589 5591 5591 5591 5591 5591 5590 5590 5588 5586 5584